Volver al catálogo

STARLINK-37371

ActivoComunicacionesVLEO
NORAD 68977·PAYLOAD·🇺🇸 United States

Lanzado May 1, 2026 desde Cape Canaveral Space Force Station

Loading…

Próximos Pases (próximas 24 horas)

TLE

ActualizadoSource: CelesTrak SupGP

Época: Sep 14, 2026, 23:32 UTC

1 68977C 26099AC  26257.98104167  .00026299  00000+0  77721-3 0  2572
2 68977  53.1566 101.2652 0001282  84.1230 197.0276 15.34369729    15

Sigue STARLINK-37371 en tiempo real con AllMySat

Download on the App Store